Time,TemperatureF,DewpointF,PressureIn,WindDirection,WindDirectionDegrees,WindSpeedMPH,WindSpeedGustMPH,Humidity,HourlyPrecipIn,Conditions,Clouds,dailyrainin,SoftwareType,DateUTC
2013-01-07 00:09:00,28.6,28.6,24.25,NW,322,2.0,10.0,100,0.02,,OVC,-99.99,VWS V12.07,2013-01-07 08:09:00,
2013-01-07 00:15:00,28.5,28.5,24.25,North,11,6.0,6.0,100,0.03,,OVC,-99.99,VWS V12.07,2013-01-07 08:15:00,
2013-01-07 00:21:00,28.4,28.1,24.25,NW,308,3.0,11.0,99,0.03,,OVC,-99.99,VWS V12.07,2013-01-07 08:21:00,
2013-01-07 00:26:00,28.3,28.0,24.25,NW,313,8.0,11.0,99,0.03,,OVC,-99.99,VWS V12.07,2013-01-07 08:26:00,
2013-01-07 00:34:00,28.0,27.8,24.25,WNW,293,4.0,8.0,99,0.02,,OVC,-99.99,VWS V12.07,2013-01-07 08:34:00,
2013-01-07 00:40:00,27.8,27.6,24.25,NW,312,5.0,10.0,99,0.02,,OVC,-99.99,VWS V12.07,2013-01-07 08:40:00,
2013-01-07 00:45:00,27.7,27.5,24.25,NW,316,15.0,15.0,99,0.02,,OVC,-99.99,VWS V12.07,2013-01-07 08:45:00,
2013-01-07 00:51:00,27.5,27.3,24.25,NW,311,6.0,15.0,99,0.01,,OVC,-99.99,VWS V12.07,2013-01-07 08:51:00,
2013-01-07 00:57:00,27.4,27.2,24.25,NW,308,6.0,15.0,99,0.01,,OVC,-99.99,VWS V12.07,2013-01-07 08:57:00,
2013-01-07 01:09:00,27.0,26.8,24.25,NW,325,4.0,8.0,99,0.01,,OVC,-99.99,VWS V12.07,2013-01-07 09:09:00,
2013-01-07 01:15:00,27.0,26.8,24.25,NNW,331,5.0,5.0,99,0.01,,OVC,-99.99,VWS V12.07,2013-01-07 09:15:00,
2013-01-07 01:20:00,26.9,26.7,24.25,NW,316,3.0,9.0,99,0.00,,OVC,-99.99,VWS V12.07,2013-01-07 09:20:00,
2013-01-07 01:26:00,26.9,26.7,24.25,NNW,329,4.0,9.0,99,0.01,,OVC,-99.99,VWS V12.07,2013-01-07 09:26:00,
2013-01-07 01:34:00,26.9,26.7,24.25,NW,320,2.0,12.0,99,0.01,,OVC,-99.99,VWS V12.07,2013-01-07 09:34:00,
2013-01-07 01:40:00,26.8,26.6,24.24,WNW,300,5.0,15.0,99,0.02,,OVC,-99.99,VWS V12.07,2013-01-07 09:40:00,
2013-01-07 01:45:00,26.7,26.5,24.25,West,259,2.0,3.0,99,0.03,,OVC,-99.99,VWS V12.07,2013-01-07 09:45:00,
2013-01-07 01:51:00,26.7,26.5,24.25,NW,322,4.0,10.0,99,0.03,,OVC,-99.99,VWS V12.07,2013-01-07 09:51:00,
2013-01-07 01:56:00,26.7,26.5,24.25,WNW,300,2.0,10.0,99,0.04,,OVC,-99.99,VWS V12.07,2013-01-07 09:56:00,
2013-01-07 02:10:00,26.7,26.5,24.24,NW,304,5.0,13.0,99,0.05,,OVC,-99.99,VWS V12.07,2013-01-07 10:10:00,
2013-01-07 02:16:00,26.8,26.8,24.24,NNW,332,1.0,14.0,100,0.05,,OVC,-99.99,VWS V12.07,2013-01-07 10:16:00,
2013-01-07 02:21:00,26.8,26.6,24.24,WNW,286,6.0,14.0,99,0.06,,OVC,-99.99,VWS V12.07,2013-01-07 10:21:00,
2013-01-07 02:26:00,26.8,26.6,24.24,North,0,2.0,14.0,99,0.06,,OVC,-99.99,VWS V12.07,2013-01-07 10:26:00,
2013-01-07 02:34:00,26.8,26.8,24.24,NW,316,5.0,11.0,100,0.06,,OVC,-99.99,VWS V12.07,2013-01-07 10:34:00,
2013-01-07 02:40:00,26.8,26.6,24.23,WNW,283,1.0,15.0,99,0.06,,OVC,-99.99,VWS V12.07,2013-01-07 10:40:00,
2013-01-07 02:45:00,26.7,26.5,24.24,WNW,293,5.0,7.0,99,0.06,,OVC,-99.99,VWS V12.07,2013-01-07 10:45:00,
2013-01-07 02:51:00,26.6,26.6,24.23,NW,316,4.0,13.0,100,0.05,,OVC,-99.99,VWS V12.07,2013-01-07 10:51:00,
2013-01-07 02:56:00,26.6,26.4,24.24,North,352,4.0,13.0,99,0.05,,OVC,-99.99,VWS V12.07,2013-01-07 10:56:00,
2013-01-07 03:08:00,26.5,26.3,24.23,NNW,338,7.0,15.0,99,0.04,,OVC,-99.99,VWS V12.07,2013-01-07 11:08:00,
2013-01-07 03:14:00,26.4,26.2,24.23,NW,307,7.0,18.0,99,0.05,,OVC,-99.99,VWS V12.07,2013-01-07 11:14:00,
2013-01-07 03:19:00,26.3,26.1,24.23,NNW,330,6.0,16.0,99,0.04,,OVC,-99.99,VWS V12.07,2013-01-07 11:19:00,
2013-01-07 03:24:00,26.2,26.0,24.23,NW,323,9.0,16.0,99,0.04,,OVC,-99.99,VWS V12.07,2013-01-07 11:24:00,
2013-01-07 03:29:00,26.1,25.9,24.23,NW,324,7.0,16.0,99,0.04,,OVC,-99.99,VWS V12.07,2013-01-07 11:29:00,
2013-01-07 03:34:00,26.0,25.8,24.24,NW,304,6.0,14.0,99,0.04,,OVC,-99.99,VWS V12.07,2013-01-07 11:34:00,
2013-01-07 03:40:00,26.0,26.0,24.24,NNE,33,7.0,14.0,100,0.04,,OVC,-99.99,VWS V12.07,2013-01-07 11:40:00,
2013-01-07 03:45:00,26.0,25.8,24.24,NNW,331,4.0,5.0,99,0.04,,OVC,-99.99,VWS V12.07,2013-01-07 11:45:00,
2013-01-07 03:51:00,26.1,25.9,24.25,NW,307,8.0,11.0,99,0.03,,OVC,-99.99,VWS V12.07,2013-01-07 11:51:00,
2013-01-07 03:56:00,26.1,26.1,24.24,NW,309,5.0,11.0,100,0.04,,OVC,-99.99,VWS V12.07,2013-01-07 11:56:00,
2013-01-07 04:08:00,26.3,26.3,24.24,NW,315,6.0,12.0,100,0.03,,OVC,-99.99,VWS V12.07,2013-01-07 12:08:00,
2013-01-07 04:14:00,26.4,26.4,24.24,NW,322,7.0,13.0,100,0.04,,OVC,-99.99,VWS V12.07,2013-01-07 12:14:00,
2013-01-07 04:20:00,26.3,26.3,24.24,WNW,302,11.0,14.0,100,0.03,,OVC,-99.99,VWS V12.07,2013-01-07 12:20:00,
2013-01-07 04:26:00,26.3,26.3,24.25,WNW,296,4.0,14.0,100,0.03,,OVC,-99.99,VWS V12.07,2013-01-07 12:26:00,
2013-01-07 04:34:00,26.2,26.2,24.25,NNW,340,4.0,19.0,100,0.03,,OVC,-99.99,VWS V12.07,2013-01-07 12:34:00,
2013-01-07 04:40:00,26.1,25.9,24.25,West,277,5.0,19.0,99,0.03,,OVC,-99.99,VWS V12.07,2013-01-07 12:40:00,
2013-01-07 04:45:00,26.2,26.2,24.26,NNW,339,2.0,19.0,100,0.04,,OVC,-99.99,VWS V12.07,2013-01-07 12:45:00,
2013-01-07 04:51:00,26.1,25.9,24.26,WNW,291,10.0,11.0,99,0.03,,OVC,-99.99,VWS V12.07,2013-01-07 12:51:00,
2013-01-07 04:56:00,26.1,25.9,24.26,NW,325,2.0,11.0,99,0.03,,OVC,-99.99,VWS V12.07,2013-01-07 12:56:00,
2013-01-07 05:09:00,25.8,25.6,24.26,West,263,1.0,9.0,99,0.02,,OVC,-99.99,VWS V12.07,2013-01-07 13:09:00,
2013-01-07 05:15:00,25.6,25.4,24.27,NNE,29,2.0,3.0,99,0.02,,OVC,-99.99,VWS V12.07,2013-01-07 13:15:00,
2013-01-07 05:21:00,25.5,25.3,24.26,North,0,1.0,8.0,99,0.01,,OVC,-99.99,VWS V12.07,2013-01-07 13:21:00,
2013-01-07 05:26:00,25.5,25.3,24.26,West,266,2.0,8.0,99,0.01,,OVC,-99.99,VWS V12.07,2013-01-07 13:26:00,
2013-01-07 05:34:00,25.4,25.2,24.27,West,265,2.0,5.0,99,0.01,,OVC,-99.99,VWS V12.07,2013-01-07 13:34:00,
2013-01-07 05:40:00,25.3,25.1,24.27,NNW,346,2.0,7.0,99,0.02,,OVC,-99.99,VWS V12.07,2013-01-07 13:40:00,
2013-01-07 05:45:00,25.2,25.0,24.27,WSW,239,2.0,4.0,99,0.02,,OVC,-99.99,VWS V12.07,2013-01-07 13:45:00,
2013-01-07 05:51:00,25.1,24.9,24.27,West,261,1.0,8.0,99,0.01,,OVC,-99.99,VWS V12.07,2013-01-07 13:51:00,
2013-01-07 05:56:00,25.1,24.9,24.27,WSW,243,1.0,8.0,99,0.01,,OVC,-99.99,VWS V12.07,2013-01-07 13:56:00,
2013-01-07 06:09:00,24.7,24.5,24.28,NNW,341,3.0,7.0,99,0.01,,OVC,-99.99,VWS V12.07,2013-01-07 14:09:00,
2013-01-07 06:15:00,24.6,24.4,24.28,WNW,286,4.0,7.0,99,0.01,,OVC,-99.99,VWS V12.07,2013-01-07 14:15:00,
2013-01-07 06:20:00,24.5,24.0,24.28,NNW,329,2.0,7.0,98,0.01,,OVC,-99.99,VWS V12.07,2013-01-07 14:20:00,
2013-01-07 06:26:00,24.4,23.9,24.28,NNW,346,3.0,8.0,98,0.01,,OVC,-99.99,VWS V12.07,2013-01-07 14:26:00,
2013-01-07 06:34:00,24.3,23.8,24.29,WNW,298,1.0,8.0,98,0.01,,OVC,-99.99,VWS V12.07,2013-01-07 14:34:00,
2013-01-07 06:40:00,24.2,23.7,24.29,WNW,294,4.0,8.0,98,0.01,,OVC,-99.99,VWS V12.07,2013-01-07 14:40:00,
2013-01-07 06:45:00,24.1,23.6,24.29,WNW,298,2.0,3.0,98,0.01,,OVC,-99.99,VWS V12.07,2013-01-07 14:45:00,
2013-01-07 06:51:00,24.1,23.6,24.30,NW,312,4.0,8.0,98,0.01,,OVC,-99.99,VWS V12.07,2013-01-07 14:51:00,
2013-01-07 06:56:00,24.0,23.5,24.30,NW,314,3.0,9.0,98,0.01,,OVC,-99.99,VWS V12.07,2013-01-07 14:56:00,
2013-01-07 07:09:00,24.1,23.6,24.30,WNW,301,6.0,8.0,98,0.01,,OVC,-99.99,VWS V12.07,2013-01-07 15:09:00,
2013-01-07 07:15:00,24.3,23.8,24.30,NW,320,3.0,4.0,98,0.01,,OVC,-99.99,VWS V12.07,2013-01-07 15:15:00,
2013-01-07 07:20:00,24.4,23.9,24.30,NNW,346,6.0,13.0,98,0.01,,OVC,-99.99,VWS V12.07,2013-01-07 15:20:00,
2013-01-07 07:26:00,24.5,24.0,24.30,NE,46,5.0,13.0,98,0.01,,OVC,-99.99,VWS V12.07,2013-01-07 15:26:00,
2013-01-07 07:34:00,24.6,24.1,24.31,NW,305,8.0,10.0,98,0.01,,OVC,-99.99,VWS V12.07,2013-01-07 15:34:00,
2013-01-07 07:40:00,24.7,24.2,24.31,West,265,6.0,12.0,98,0.01,,OVC,-99.99,VWS V12.07,2013-01-07 15:40:00,
2013-01-07 07:45:00,24.7,24.5,24.32,WNW,299,6.0,8.0,99,0.01,,OVC,-99.99,VWS V12.07,2013-01-07 15:45:00,
2013-01-07 07:50:00,24.7,24.2,24.31,NW,311,5.0,10.0,98,0.01,,OVC,-99.99,VWS V12.07,2013-01-07 15:50:00,
2013-01-07 07:56:00,24.7,24.2,24.32,NW,316,4.0,10.0,98,0.01,,OVC,-99.99,VWS V12.07,2013-01-07 15:56:00,
2013-01-07 08:09:00,24.7,24.2,24.32,NW,317,6.0,10.0,98,0.00,,OVC,-99.99,VWS V12.07,2013-01-07 16:09:00,
2013-01-07 08:15:00,24.7,24.2,24.32,NW,311,6.0,6.0,98,0.00,,OVC,-99.99,VWS V12.07,2013-01-07 16:15:00,
2013-01-07 08:20:00,24.7,24.2,24.32,NW,305,6.0,9.0,98,0.00,,OVC,-99.99,VWS V12.07,2013-01-07 16:20:00,
2013-01-07 08:26:00,24.7,24.2,24.32,WNW,296,6.0,9.0,98,0.00,,OVC,-99.99,VWS V12.07,2013-01-07 16:26:00,
2013-01-07 08:35:00,24.8,24.3,24.32,WNW,287,5.0,11.0,98,0.00,,OVC,-99.99,VWS V12.07,2013-01-07 16:35:00,
2013-01-07 08:41:00,24.9,24.4,24.32,NW,307,6.0,11.0,98,0.00,,OVC,-99.99,VWS V12.07,2013-01-07 16:41:00,
2013-01-07 08:46:00,25.0,24.5,24.33,NW,316,4.0,5.0,98,0.01,,OVC,-99.99,VWS V12.07,2013-01-07 16:46:00,
2013-01-07 08:51:00,25.1,24.6,24.33,NW,316,3.0,9.0,98,0.01,,OVC,-99.99,VWS V12.07,2013-01-07 16:51:00,
2013-01-07 08:56:00,25.3,24.8,24.33,NW,318,4.0,11.0,98,0.01,,OVC,-99.99,VWS V12.07,2013-01-07 16:56:00,
2013-01-07 09:08:00,25.5,25.0,24.34,NW,312,6.0,11.0,98,0.01,,OVC,-99.99,VWS V12.07,2013-01-07 17:08:00,
2013-01-07 09:14:00,25.6,25.1,24.34,WNW,299,7.0,11.0,98,0.01,,OVC,-99.99,VWS V12.07,2013-01-07 17:14:00,
2013-01-07 09:19:00,25.6,25.1,24.35,NNW,335,3.0,12.0,98,0.01,,OVC,-99.99,VWS V12.07,2013-01-07 17:19:00,
2013-01-07 09:24:00,25.7,25.2,24.35,NW,308,4.0,16.0,98,0.01,,OVC,-99.99,VWS V12.07,2013-01-07 17:24:00,
2013-01-07 09:29:00,25.7,25.2,24.35,WNW,284,7.0,16.0,98,0.01,,OVC,-99.99,VWS V12.07,2013-01-07 17:29:00,
2013-01-07 09:34:00,25.8,25.3,24.35,NW,307,7.0,12.0,98,0.01,,OVC,-99.99,VWS V12.07,2013-01-07 17:34:00,
2013-01-07 09:40:00,25.9,25.4,24.35,North,1,3.0,12.0,98,0.01,,OVC,-99.99,VWS V12.07,2013-01-07 17:40:00,
2013-01-07 09:46:00,26.1,25.6,24.35,WNW,283,6.0,7.0,98,0.00,,OVC,-99.99,VWS V12.07,2013-01-07 17:46:00,
2013-01-07 09:51:00,26.3,25.8,24.35,WNW,291,6.0,10.0,98,0.00,,OVC,-99.99,VWS V12.07,2013-01-07 17:51:00,
2013-01-07 09:56:00,26.4,25.9,24.35,WNW,298,6.0,13.0,98,0.00,,OVC,-99.99,VWS V12.07,2013-01-07 17:56:00,
2013-01-07 10:08:00,26.7,26.0,24.36,NNW,341,7.0,14.0,97,0.00,,OVC,-99.99,VWS V12.07,2013-01-07 18:08:00,
2013-01-07 10:14:00,26.9,26.2,24.36,NW,325,3.0,14.0,97,0.00,,OVC,-99.99,VWS V12.07,2013-01-07 18:14:00,
2013-01-07 10:19:00,27.1,26.4,24.36,NW,321,6.0,6.0,97,0.00,,OVC,-99.99,VWS V12.07,2013-01-07 18:19:00,
2013-01-07 10:24:00,27.3,26.6,24.36,NW,312,3.0,7.0,97,0.00,,OVC,-99.99,VWS V12.07,2013-01-07 18:24:00,
2013-01-07 10:29:00,27.4,26.4,24.36,WNW,297,3.0,10.0,96,0.00,,OVC,-99.99,VWS V12.07,2013-01-07 18:29:00,
2013-01-07 10:34:00,27.5,26.8,24.36,NW,320,1.0,13.0,97,0.00,,OVC,-99.99,VWS V12.07,2013-01-07 18:34:00,
2013-01-07 10:40:00,27.6,26.6,24.36,WNW,291,5.0,13.0,96,0.00,,OVC,-99.99,VWS V12.07,2013-01-07 18:40:00,
2013-01-07 10:46:00,27.8,26.8,24.36,NW,307,3.0,11.0,96,0.00,,OVC,-99.99,VWS V12.07,2013-01-07 18:46:00,
2013-01-07 10:51:00,27.9,26.9,24.36,NW,305,5.0,11.0,96,0.00,,OVC,-99.99,VWS V12.07,2013-01-07 18:51:00,
2013-01-07 10:56:00,28.1,26.9,24.36,NNW,345,3.0,11.0,95,0.00,,OVC,-99.99,VWS V12.07,2013-01-07 18:56:00,
2013-01-07 11:09:00,28.5,27.0,24.35,NW,309,3.0,12.0,94,0.01,,OVC,-99.99,VWS V12.07,2013-01-07 19:09:00,
2013-01-07 11:15:00,28.9,27.4,24.35,WNW,293,4.0,5.0,94,0.01,,OVC,-99.99,VWS V12.07,2013-01-07 19:15:00,
2013-01-07 11:21:00,29.2,27.7,24.35,WNW,300,4.0,13.0,94,0.01,,OVC,-99.99,VWS V12.07,2013-01-07 19:21:00,
2013-01-07 11:26:00,29.4,27.6,24.34,NNW,330,3.0,13.0,93,0.01,,OVC,-99.99,VWS V12.07,2013-01-07 19:26:00,
2013-01-07 11:34:00,29.7,27.7,24.34,WNW,295,4.0,10.0,92,0.01,,OVC,-99.99,VWS V12.07,2013-01-07 19:34:00,
2013-01-07 11:40:00,29.9,27.6,24.34,NNW,347,2.0,14.0,91,0.01,,OVC,-99.99,VWS V12.07,2013-01-07 19:40:00,
2013-01-07 11:46:00,30.1,27.3,24.34,NW,314,4.0,11.0,89,0.01,,OVC,-99.99,VWS V12.07,2013-01-07 19:46:00,
2013-01-07 11:51:00,30.4,27.5,24.33,NW,315,4.0,11.0,89,0.01,,OVC,-99.99,VWS V12.07,2013-01-07 19:51:00,
2013-01-07 11:56:00,30.9,28.0,24.34,SSE,157,3.0,11.0,89,0.01,,OVC,-99.99,VWS V12.07,2013-01-07 19:56:00,
2013-01-07 12:09:00,32.2,28.8,24.33,NW,319,4.0,14.0,87,0.02,,OVC,-99.99,VWS V12.07,2013-01-07 20:09:00,
2013-01-07 12:15:00,32.5,28.8,24.33,NW,309,3.0,3.0,86,0.02,,OVC,-99.99,VWS V12.07,2013-01-07 20:15:00,
2013-01-07 12:20:00,32.8,28.8,24.33,NNW,342,5.0,12.0,85,0.01,,OVC,-99.99,VWS V12.07,2013-01-07 20:20:00,
2013-01-07 12:25:00,32.9,28.6,24.33,NW,323,8.0,12.0,84,0.01,,OVC,-99.99,VWS V12.07,2013-01-07 20:25:00,
2013-01-07 12:28:00,32.9,28.0,24.32,NNW,332,5.0,15.0,82,0.01,,OVC,-99.99,VWS V12.07,2013-01-07 20:28:00,
2013-01-07 12:35:00,33.0,27.8,24.33,WNW,294,7.0,12.0,81,0.01,,OVC,-99.99,VWS V12.07,2013-01-07 20:35:00,
2013-01-07 12:40:00,33.1,27.9,24.32,North,352,3.0,12.0,81,0.01,,OVC,-99.99,VWS V12.07,2013-01-07 20:40:00,
2013-01-07 12:45:00,33.3,27.8,24.33,NNW,331,4.0,4.0,80,0.01,,OVC,-99.99,VWS V12.07,2013-01-07 20:45:00,
2013-01-07 12:50:00,33.4,27.6,24.33,WNW,288,6.0,12.0,79,0.01,,OVC,-99.99,VWS V12.07,2013-01-07 20:50:00,
2013-01-07 12:56:00,33.5,27.7,24.33,NNW,347,5.0,17.0,79,0.01,,OVC,-99.99,VWS V12.07,2013-01-07 20:56:00,
2013-01-07 13:09:00,33.8,27.4,24.32,WNW,300,5.0,16.0,77,0.01,,OVC,-99.99,VWS V12.07,2013-01-07 21:09:00,
2013-01-07 13:15:00,33.9,27.5,24.33,NW,314,7.0,7.0,77,0.01,,OVC,-99.99,VWS V12.07,2013-01-07 21:15:00,
2013-01-07 13:21:00,33.9,27.5,24.33,NNW,333,1.0,10.0,77,0.01,,OVC,-99.99,VWS V12.07,2013-01-07 21:21:00,
2013-01-07 13:26:00,34.0,27.9,24.33,North,11,3.0,10.0,78,0.01,,OVC,-99.99,VWS V12.07,2013-01-07 21:26:00,
2013-01-07 13:34:00,34.1,27.7,24.32,NW,307,7.0,14.0,77,0.01,,OVC,-99.99,VWS V12.07,2013-01-07 21:34:00,
2013-01-07 13:40:00,34.1,27.7,24.32,NW,306,6.0,14.0,77,0.01,,OVC,-99.99,VWS V12.07,2013-01-07 21:40:00,
2013-01-07 13:45:00,34.1,27.3,24.32,North,354,6.0,9.0,76,0.01,,OVC,-99.99,VWS V12.07,2013-01-07 21:45:00,
2013-01-07 13:50:00,34.2,27.4,24.32,WNW,294,3.0,12.0,76,0.01,,OVC,-99.99,VWS V12.07,2013-01-07 21:50:00,
2013-01-07 13:55:00,34.3,27.5,24.32,North,351,3.0,13.0,76,0.01,,OVC,-99.99,VWS V12.07,2013-01-07 21:55:00,
2013-01-07 14:09:00,34.5,27.7,24.32,WNW,299,4.0,12.0,76,0.01,,OVC,-99.99,VWS V12.07,2013-01-07 22:09:00,
2013-01-07 14:14:00,34.6,28.1,24.32,WNW,303,5.0,12.0,77,0.01,,OVC,-99.99,VWS V12.07,2013-01-07 22:14:00,
2013-01-07 14:19:00,34.6,27.5,24.32,NW,313,7.0,10.0,75,0.00,,OVC,-99.99,VWS V12.07,2013-01-07 22:19:00,
2013-01-07 14:24:00,34.4,27.6,24.32,NNW,329,4.0,10.0,76,0.00,,OVC,-99.99,VWS V12.07,2013-01-07 22:24:00,
2013-01-07 14:29:00,34.5,27.4,24.32,NNW,338,2.0,10.0,75,0.00,,OVC,-99.99,VWS V12.07,2013-01-07 22:29:00,
2013-01-07 14:34:00,34.6,27.5,24.32,NW,308,8.0,10.0,75,0.00,,OVC,-99.99,VWS V12.07,2013-01-07 22:34:00,
2013-01-07 14:40:00,34.8,27.4,24.32,NNW,332,5.0,13.0,74,0.00,,OVC,-99.99,VWS V12.07,2013-01-07 22:40:00,
2013-01-07 14:46:00,34.9,27.1,24.33,NW,314,4.0,14.0,73,0.00,,OVC,-99.99,VWS V12.07,2013-01-07 22:46:00,
2013-01-07 14:51:00,35.1,27.0,24.33,NW,313,4.0,15.0,72,0.00,,OVC,-99.99,VWS V12.07,2013-01-07 22:51:00,
2013-01-07 14:56:00,35.2,27.4,24.32,NW,314,7.0,15.0,73,0.00,,OVC,-99.99,VWS V12.07,2013-01-07 22:56:00,
2013-01-07 15:09:00,35.2,27.1,24.33,WNW,298,3.0,10.0,72,0.00,,OVC,-99.99,VWS V12.07,2013-01-07 23:09:00,
2013-01-07 15:15:00,35.2,26.8,24.33,NW,305,3.0,4.0,71,0.00,,OVC,-99.99,VWS V12.07,2013-01-07 23:15:00,
2013-01-07 15:21:00,35.2,26.1,24.33,NW,310,5.0,11.0,69,0.00,,OVC,-99.99,VWS V12.07,2013-01-07 23:21:00,
2013-01-07 15:26:00,35.3,25.8,24.33,WNW,295,6.0,14.0,68,0.00,,OVC,-99.99,VWS V12.07,2013-01-07 23:26:00,
2013-01-07 15:34:00,35.4,26.3,24.33,NNW,331,5.0,14.0,69,0.00,,OVC,-99.99,VWS V12.07,2013-01-07 23:34:00,
2013-01-07 15:42:00,35.5,26.4,24.33,NNW,343,4.0,4.0,69,13.19,,OVC,-99.99,VWS V12.07,2013-01-07 23:42:00,
2013-01-07 16:58:00,34.1,22.8,24.34,WNW,287,7.0,14.0,63,0.00,,OVC,-99.99,VWS V12.07,2013-01-08 00:58:00,
2013-01-07 17:09:00,34.1,22.5,24.35,NW,322,8.0,14.0,62,0.00,,OVC,-99.99,VWS V12.07,2013-01-08 01:09:00,
2013-01-07 17:15:00,34.2,22.5,24.35,WNW,293,6.0,13.0,62,0.00,,OVC,-99.99,VWS V12.07,2013-01-08 01:15:00,
2013-01-07 17:20:00,34.2,22.2,24.35,NW,315,6.0,13.0,61,0.00,,OVC,-99.99,VWS V12.07,2013-01-08 01:20:00,
2013-01-07 17:25:00,34.3,21.9,24.34,WNW,301,8.0,12.0,60,0.00,,OVC,-99.99,VWS V12.07,2013-01-08 01:25:00,
2013-01-07 17:35:00,34.5,21.3,24.35,NNW,329,6.0,20.0,58,0.00,,OVC,-99.99,VWS V12.07,2013-01-08 01:35:00,
2013-01-07 17:40:00,34.7,21.9,24.35,NW,304,5.0,20.0,59,0.00,,OVC,-99.99,VWS V12.07,2013-01-08 01:40:00,
2013-01-07 17:45:00,34.7,21.5,24.35,WNW,293,4.0,12.0,58,0.00,,OVC,-99.99,VWS V12.07,2013-01-08 01:45:00,
2013-01-07 17:51:00,35.1,21.0,24.35,NNW,339,5.0,9.0,56,0.00,,OVC,-99.99,VWS V12.07,2013-01-08 01:51:00,
2013-01-07 17:56:00,35.3,21.2,24.35,WNW,301,1.0,12.0,56,0.00,,OVC,-99.99,VWS V12.07,2013-01-08 01:56:00,
2013-01-07 18:10:00,35.4,20.9,24.35,WNW,292,5.0,6.0,55,0.00,,OVC,-99.99,VWS V12.07,2013-01-08 02:10:00,
2013-01-07 18:15:00,35.5,21.0,24.36,NNW,327,3.0,13.0,55,0.00,,OVC,-99.99,VWS V12.07,2013-01-08 02:15:00,
2013-01-07 18:20:00,35.5,20.5,24.35,North,357,4.0,4.0,54,0.00,,OVC,-99.99,VWS V12.07,2013-01-08 02:20:00,
2013-01-07 18:26:00,35.5,20.5,24.35,WNW,302,5.0,11.0,54,0.00,,OVC,-99.99,VWS V12.07,2013-01-08 02:26:00,
2013-01-07 18:35:00,35.6,20.2,24.35,WNW,297,6.0,9.0,53,0.00,,OVC,-99.99,VWS V12.07,2013-01-08 02:35:00,
2013-01-07 18:41:00,35.7,20.3,24.35,WNW,292,5.0,7.0,53,0.00,,OVC,-99.99,VWS V12.07,2013-01-08 02:41:00,
2013-01-07 18:46:00,35.9,19.1,24.35,NNE,17,1.0,9.0,50,0.00,,OVC,-99.99,VWS V12.07,2013-01-08 02:46:00,
2013-01-07 18:51:00,36.0,18.7,24.35,NNW,329,1.0,5.0,49,0.00,,OVC,-99.99,VWS V12.07,2013-01-08 02:51:00,
2013-01-07 18:56:00,36.0,18.7,24.35,NW,320,5.0,10.0,49,0.00,,OVC,-99.99,VWS V12.07,2013-01-08 02:56:00,
2013-01-07 19:09:00,35.5,18.7,24.35,NW,310,5.0,12.0,50,0.00,,OVC,-99.99,VWS V12.07,2013-01-08 03:09:00,
2013-01-07 19:15:00,35.5,18.7,24.35,NW,314,5.0,13.0,50,0.00,,OVC,-99.99,VWS V12.07,2013-01-08 03:15:00,
2013-01-07 19:20:00,35.5,18.2,24.35,North,353,4.0,10.0,49,0.00,,OVC,-99.99,VWS V12.07,2013-01-08 03:20:00,
2013-01-07 19:26:00,35.8,18.0,24.35,NNW,341,3.0,10.0,48,0.00,,OVC,-99.99,VWS V12.07,2013-01-08 03:26:00,
2013-01-07 19:35:00,36.0,17.2,24.35,North,2,5.0,10.0,46,0.00,,OVC,-99.99,VWS V12.07,2013-01-08 03:35:00,
2013-01-07 19:41:00,36.0,17.7,24.35,NW,309,2.0,5.0,47,0.00,,OVC,-99.99,VWS V12.07,2013-01-08 03:41:00,
2013-01-07 19:46:00,36.0,16.7,24.35,NNE,30,5.0,11.0,45,0.00,,OVC,-99.99,VWS V12.07,2013-01-08 03:46:00,
2013-01-07 19:51:00,36.0,16.7,24.35,West,272,3.0,7.0,45,0.00,,OVC,-99.99,VWS V12.07,2013-01-08 03:51:00,
2013-01-07 19:56:00,36.1,16.8,24.35,NW,309,3.0,10.0,45,0.00,,OVC,-99.99,VWS V12.07,2013-01-08 03:56:00,
2013-01-07 20:10:00,36.2,16.9,24.35,SE,133,3.0,3.0,45,0.00,,OVC,-99.99,VWS V12.07,2013-01-08 04:10:00,
2013-01-07 20:15:00,36.3,16.0,24.36,WNW,282,4.0,10.0,43,0.00,,OVC,-99.99,VWS V12.07,2013-01-08 04:15:00,
2013-01-07 20:20:00,36.4,16.6,24.36,WSW,237,2.0,3.0,44,0.00,,OVC,-99.99,VWS V12.07,2013-01-08 04:20:00,
2013-01-07 20:26:00,36.4,16.0,24.36,NNW,330,3.0,9.0,43,0.00,,OVC,-99.99,VWS V12.07,2013-01-08 04:26:00,
2013-01-07 20:35:00,36.7,16.3,24.36,NW,312,3.0,11.0,43,0.00,,OVC,-99.99,VWS V12.07,2013-01-08 04:35:00,
2013-01-07 20:41:00,36.8,15.3,24.36,NE,34,2.0,5.0,41,0.00,,OVC,-99.99,VWS V12.07,2013-01-08 04:41:00,
2013-01-07 20:46:00,36.8,15.9,24.36,NNW,337,4.0,10.0,42,0.00,,OVC,-99.99,VWS V12.07,2013-01-08 04:46:00,
2013-01-07 20:51:00,36.9,16.0,24.36,WSW,251,0.0,5.0,42,0.00,,OVC,-99.99,VWS V12.07,2013-01-08 04:51:00,
2013-01-07 20:56:00,36.8,15.9,24.37,WSW,256,3.0,10.0,42,0.00,,OVC,-99.99,VWS V12.07,2013-01-08 04:56:00,
2013-01-07 21:10:00,36.7,16.3,24.37,WNW,302,5.0,6.0,43,0.00,,OVC,-99.99,VWS V12.07,2013-01-08 05:10:00,
2013-01-07 21:11:00,36.7,15.8,24.40,NNW,345,3.0,6.0,42,0.00,,OVC,-99.99,VWS V12.07,2013-01-08 05:11:00,
2013-01-07 21:16:00,36.6,17.3,24.36,WSW,257,3.0,9.0,45,0.00,,OVC,-99.99,VWS V12.07,2013-01-08 05:16:00,
2013-01-07 21:21:00,36.6,16.2,24.36,WNW,288,2.0,6.0,43,0.00,,OVC,-99.99,VWS V12.07,2013-01-08 05:21:00,
2013-01-07 21:26:00,36.7,15.8,24.36,North,7,3.0,14.0,42,0.00,,OVC,-99.99,VWS V12.07,2013-01-08 05:26:00,
2013-01-07 21:34:00,36.9,16.0,24.36,North,2,2.0,13.0,42,0.00,,OVC,-99.99,VWS V12.07,2013-01-08 05:34:00,
2013-01-07 21:40:00,36.9,16.5,24.36,NW,312,3.0,3.0,43,0.00,,OVC,-99.99,VWS V12.07,2013-01-08 05:40:00,
2013-01-07 21:45:00,37.0,16.6,24.36,NW,310,8.0,10.0,43,0.00,,OVC,-99.99,VWS V12.07,2013-01-08 05:45:00,
2013-01-07 21:51:00,37.1,16.1,24.37,NNE,24,4.0,9.0,42,0.00,,OVC,-99.99,VWS V12.07,2013-01-08 05:51:00,
2013-01-07 21:56:00,37.2,16.8,24.36,WSW,247,2.0,11.0,43,0.00,,OVC,-99.99,VWS V12.07,2013-01-08 05:56:00,
2013-01-07 22:09:00,37.0,16.1,24.37,WNW,299,7.0,11.0,42,0.00,,OVC,-99.99,VWS V12.07,2013-01-08 06:09:00,
2013-01-07 22:11:00,37.1,16.1,24.37,WNW,291,5.0,6.0,42,0.00,,OVC,-99.99,VWS V12.07,2013-01-08 06:11:00,
2013-01-07 22:16:00,37.2,15.7,24.37,NE,42,2.0,9.0,41,0.00,,OVC,-99.99,VWS V12.07,2013-01-08 06:16:00,
2013-01-07 22:21:00,37.2,16.2,24.37,NW,304,3.0,6.0,42,0.00,,OVC,-99.99,VWS V12.07,2013-01-08 06:21:00,
2013-01-07 22:26:00,37.0,16.6,24.37,WNW,288,5.0,7.0,43,0.00,,OVC,-99.99,VWS V12.07,2013-01-08 06:26:00,
2013-01-07 22:34:00,36.8,15.9,24.38,North,6,2.0,6.0,42,0.00,,OVC,-99.99,VWS V12.07,2013-01-08 06:34:00,
2013-01-07 22:40:00,36.9,17.0,24.38,NE,36,6.0,10.0,44,0.00,,OVC,-99.99,VWS V12.07,2013-01-08 06:40:00,
2013-01-07 22:45:00,37.0,16.6,24.38,SE,130,2.0,11.0,43,0.00,,OVC,-99.99,VWS V12.07,2013-01-08 06:45:00,
2013-01-07 22:51:00,37.0,17.6,24.38,WSW,253,3.0,3.0,45,0.00,,OVC,-99.99,VWS V12.07,2013-01-08 06:51:00,
2013-01-07 22:56:00,36.9,16.0,24.39,NNE,12,2.0,8.0,42,0.00,,OVC,-99.99,VWS V12.07,2013-01-08 06:56:00,
2013-01-07 23:09:00,36.8,16.4,24.39,WNW,301,4.0,9.0,43,0.00,,OVC,-99.99,VWS V12.07,2013-01-08 07:09:00,
2013-01-07 23:15:00,36.9,17.6,24.39,West,275,4.0,9.0,45,0.00,,OVC,-99.99,VWS V12.07,2013-01-08 07:15:00,
2013-01-07 23:21:00,36.8,17.0,24.39,North,0,4.0,8.0,44,0.00,,OVC,-99.99,VWS V12.07,2013-01-08 07:21:00,
2013-01-07 23:26:00,36.9,16.5,24.39,NW,305,6.0,13.0,43,0.00,,OVC,-99.99,VWS V12.07,2013-01-08 07:26:00,
2013-01-07 23:34:00,37.0,16.1,24.39,WNW,302,4.0,10.0,42,0.00,,OVC,-99.99,VWS V12.07,2013-01-08 07:34:00,
2013-01-07 23:40:00,37.2,16.2,24.39,SSW,198,2.0,3.0,42,0.00,,OVC,-99.99,VWS V12.07,2013-01-08 07:40:00,
2013-01-07 23:45:00,37.2,16.2,24.39,NNW,338,4.0,10.0,42,0.00,,OVC,-99.99,VWS V12.07,2013-01-08 07:45:00,
2013-01-07 23:50:00,37.2,16.2,24.39,NNW,327,2.0,6.0,42,0.00,,OVC,-99.99,VWS V12.07,2013-01-08 07:50:00,
2013-01-07 23:56:00,37.1,18.2,24.39,NW,304,5.0,9.0,46,0.00,,OVC,-99.99,VWS V12.07,2013-01-08 07:56:00,